Time,TemperatureF,DewpointF,PressureIn,WindDirection,WindDirectionDegrees,WindSpeedMPH,WindSpeedGustMPH,Humidity,HourlyPrecipIn,Conditions,Clouds,dailyrainin,SoftwareType,DateUTC
2013-09-26 00:01:00,45.5,42.7,30.01,ENE,73,0.0,0.0,90,0.00,RA,,0.00,WeatherDisplay:10.37,2013-09-26 04:01:00,
2013-09-26 00:02:00,45.4,42.6,30.01,ENE,73,0.0,0.0,90,0.00,RA,,0.00,WeatherDisplay:10.37,2013-09-26 04:02:00,
2013-09-26 00:03:00,45.4,42.6,30.01,ENE,73,0.0,0.0,90,0.00,RA,,0.00,WeatherDisplay:10.37,2013-09-26 04:03:00,
2013-09-26 00:08:00,45.2,42.4,30.01,ENE,73,0.0,0.0,90,0.00,RA,,0.00,WeatherDisplay:10.37,2013-09-26 04:08:00,
2013-09-26 00:13:00,45.1,42.3,30.01,ENE,73,0.0,0.0,90,0.00,,,0.00,WeatherDisplay:10.37,2013-09-26 04:13:00,
2013-09-26 00:18:00,45.1,42.3,30.01,ENE,73,0.0,0.0,90,0.00,,,0.00,WeatherDisplay:10.37,2013-09-26 04:18:00,
2013-09-26 00:23:00,45.0,42.2,30.01,ENE,73,0.0,0.0,90,0.00,,,0.00,WeatherDisplay:10.37,2013-09-26 04:23:00,
2013-09-26 00:28:00,44.9,42.1,30.01,ENE,73,0.0,0.0,90,0.00,,,0.00,WeatherDisplay:10.37,2013-09-26 04:28:00,
2013-09-26 00:33:00,44.9,42.1,30.01,ENE,73,0.0,0.0,90,0.00,,,0.00,WeatherDisplay:10.37,2013-09-26 04:33:00,
2013-09-26 00:38:00,44.7,41.9,30.01,ENE,74,0.0,0.0,90,0.00,,,0.00,WeatherDisplay:10.37,2013-09-26 04:38:00,
2013-09-26 00:43:00,44.5,41.7,30.01,ENE,73,0.0,0.0,90,0.00,,,0.00,WeatherDisplay:10.37,2013-09-26 04:43:00,
2013-09-26 00:48:00,44.3,41.6,30.01,ENE,74,0.0,0.0,90,0.00,,,0.00,WeatherDisplay:10.37,2013-09-26 04:48:00,
2013-09-26 00:53:00,44.2,41.5,30.01,ENE,74,0.0,0.0,90,0.00,,,0.00,WeatherDisplay:10.37,2013-09-26 04:53:00,
2013-09-26 00:58:00,44.0,41.3,30.01,ENE,73,0.0,0.0,90,0.00,,,0.00,WeatherDisplay:10.37,2013-09-26 04:58:00,
2013-09-26 01:03:00,44.0,41.3,30.01,ENE,73,0.0,0.0,90,0.00,,,0.00,WeatherDisplay:10.37,2013-09-26 05:03:00,
2013-09-26 01:08:00,43.8,41.1,30.01,ENE,74,0.0,0.0,90,0.00,,,0.00,WeatherDisplay:10.37,2013-09-26 05:08:00,
2013-09-26 01:13:00,43.6,40.9,30.02,ENE,73,0.0,0.0,90,0.00,,,0.00,WeatherDisplay:10.37,2013-09-26 05:13:00,
2013-09-26 01:18:00,43.6,40.9,30.02,ENE,73,0.0,0.0,90,0.00,,,0.00,WeatherDisplay:10.37,2013-09-26 05:18:00,
2013-09-26 01:23:00,43.6,40.9,30.02,ENE,73,0.0,0.0,90,0.00,,,0.00,WeatherDisplay:10.37,2013-09-26 05:23:00,
2013-09-26 01:28:00,43.6,40.9,30.02,ENE,73,0.0,0.0,90,0.00,,,0.00,WeatherDisplay:10.37,2013-09-26 05:28:00,
2013-09-26 01:33:00,43.6,40.9,30.02,ENE,73,0.0,0.0,90,0.00,,,0.00,WeatherDisplay:10.37,2013-09-26 05:33:00,
2013-09-26 01:38:00,43.7,41.0,30.02,ENE,73,0.0,0.0,90,0.00,,,0.00,WeatherDisplay:10.37,2013-09-26 05:38:00,
2013-09-26 01:43:00,43.7,41.0,30.02,ENE,73,0.0,0.0,90,0.00,,,0.00,WeatherDisplay:10.37,2013-09-26 05:43:00,
2013-09-26 01:48:00,43.6,40.9,30.02,ENE,74,0.0,0.0,90,0.00,,,0.00,WeatherDisplay:10.37,2013-09-26 05:48:00,
2013-09-26 01:53:00,43.5,40.8,30.02,ENE,74,0.0,0.0,90,0.00,,,0.00,WeatherDisplay:10.37,2013-09-26 05:53:00,
2013-09-26 01:58:00,43.4,40.7,30.02,ENE,73,0.0,0.0,90,0.00,,,0.00,WeatherDisplay:10.37,2013-09-26 05:58:00,
2013-09-26 02:03:00,43.2,40.5,30.02,ENE,73,0.0,0.0,90,0.00,,,0.00,WeatherDisplay:10.37,2013-09-26 06:03:00,
2013-09-26 02:08:00,43.3,40.6,30.02,ENE,73,0.0,0.0,90,0.00,,,0.00,WeatherDisplay:10.37,2013-09-26 06:08:00,
2013-09-26 02:13:00,43.5,40.8,30.02,ENE,73,0.0,0.0,90,0.00,,,0.00,WeatherDisplay:10.37,2013-09-26 06:13:00,
2013-09-26 02:18:00,43.6,40.9,30.02,ENE,73,0.0,0.0,90,0.00,,,0.00,WeatherDisplay:10.37,2013-09-26 06:18:00,
2013-09-26 02:23:00,43.7,41.0,30.02,ENE,73,0.0,0.0,90,0.00,,,0.00,WeatherDisplay:10.37,2013-09-26 06:23:00,
2013-09-26 02:28:00,43.8,41.1,30.02,ENE,73,0.0,0.0,90,0.00,,,0.00,WeatherDisplay:10.37,2013-09-26 06:28:00,
2013-09-26 02:33:00,43.7,41.0,30.02,ENE,73,0.0,0.0,90,0.00,,,0.00,WeatherDisplay:10.37,2013-09-26 06:33:00,
2013-09-26 02:38:00,43.7,41.0,30.02,ENE,73,0.0,0.0,90,0.00,,,0.00,WeatherDisplay:10.37,2013-09-26 06:38:00,
2013-09-26 02:43:00,43.9,41.2,30.02,ENE,73,0.0,0.0,90,0.00,,,0.00,WeatherDisplay:10.37,2013-09-26 06:43:00,
2013-09-26 02:48:00,43.9,41.2,30.02,ENE,73,0.0,0.0,90,0.00,,,0.00,WeatherDisplay:10.37,2013-09-26 06:48:00,
2013-09-26 02:53:00,43.8,41.1,30.02,ENE,74,0.0,0.0,90,0.00,,,0.00,WeatherDisplay:10.37,2013-09-26 06:53:00,
2013-09-26 02:58:00,43.7,41.0,30.02,ENE,73,0.0,0.0,90,0.00,,,0.00,WeatherDisplay:10.37,2013-09-26 06:58:00,
2013-09-26 03:03:00,43.9,41.2,30.02,ENE,73,0.0,0.0,90,0.00,,,0.00,WeatherDisplay:10.37,2013-09-26 07:03:00,
2013-09-26 03:08:00,44.0,41.3,30.02,ENE,73,0.0,0.0,90,0.00,,,0.00,WeatherDisplay:10.37,2013-09-26 07:08:00,
2013-09-26 03:13:00,43.9,41.2,30.02,ENE,74,0.0,0.0,90,0.00,,,0.00,WeatherDisplay:10.37,2013-09-26 07:13:00,
2013-09-26 03:18:00,43.7,41.0,30.02,ENE,73,0.0,0.0,90,0.00,,,0.00,WeatherDisplay:10.37,2013-09-26 07:18:00,
2013-09-26 03:23:00,43.5,40.8,30.02,ENE,73,0.0,0.0,90,0.00,,,0.00,WeatherDisplay:10.37,2013-09-26 07:23:00,
2013-09-26 03:28:00,43.4,40.7,30.02,ENE,73,0.0,0.0,90,0.00,,,0.00,WeatherDisplay:10.37,2013-09-26 07:28:00,
2013-09-26 03:34:00,43.2,40.5,30.02,ENE,73,0.0,0.0,90,0.00,,,0.00,WeatherDisplay:10.37,2013-09-26 07:34:00,
2013-09-26 03:39:00,43.1,40.4,30.02,ENE,73,0.0,0.0,90,0.00,,,0.00,WeatherDisplay:10.37,2013-09-26 07:39:00,
2013-09-26 03:44:00,43.0,40.3,30.02,ENE,73,0.0,0.0,90,0.00,,,0.00,WeatherDisplay:10.37,2013-09-26 07:44:00,
2013-09-26 03:49:00,43.0,40.3,30.02,ENE,74,0.0,0.0,90,0.00,,,0.00,WeatherDisplay:10.37,2013-09-26 07:49:00,
2013-09-26 03:54:00,43.0,40.3,30.02,ENE,74,0.0,0.0,90,0.00,,,0.00,WeatherDisplay:10.37,2013-09-26 07:54:00,
2013-09-26 03:59:00,42.9,40.2,30.02,ENE,73,0.0,0.0,90,0.00,,,0.00,WeatherDisplay:10.37,2013-09-26 07:59:00,
2013-09-26 04:04:00,42.8,40.1,30.02,ENE,73,0.0,0.0,90,0.00,,,0.00,WeatherDisplay:10.37,2013-09-26 08:04:00,
2013-09-26 04:09:00,42.7,40.0,30.02,ENE,73,0.0,0.0,90,0.00,,,0.00,WeatherDisplay:10.37,2013-09-26 08:09:00,
2013-09-26 04:14:00,42.7,40.0,30.02,ENE,73,0.0,0.0,90,0.00,,,0.00,WeatherDisplay:10.37,2013-09-26 08:14:00,
2013-09-26 04:19:00,42.8,40.1,30.02,ENE,73,0.0,0.0,90,0.00,,,0.00,WeatherDisplay:10.37,2013-09-26 08:19:00,
2013-09-26 04:24:00,42.8,40.1,30.02,ENE,73,0.0,0.0,90,0.00,,,0.00,WeatherDisplay:10.37,2013-09-26 08:24:00,
2013-09-26 04:29:00,42.9,40.2,30.02,ENE,73,0.0,0.0,90,0.00,,,0.00,WeatherDisplay:10.37,2013-09-26 08:29:00,
2013-09-26 04:34:00,42.9,40.2,30.02,ENE,73,0.0,0.0,90,0.00,,,0.00,WeatherDisplay:10.37,2013-09-26 08:34:00,
2013-09-26 04:39:00,42.9,40.2,30.02,ENE,73,0.0,0.0,90,0.00,,,0.00,WeatherDisplay:10.37,2013-09-26 08:39:00,
2013-09-26 04:44:00,42.9,40.2,30.02,ENE,73,0.0,0.0,90,0.00,,,0.00,WeatherDisplay:10.37,2013-09-26 08:44:00,
2013-09-26 04:49:00,42.8,40.1,30.03,ENE,73,0.0,0.0,90,0.00,,,0.00,WeatherDisplay:10.37,2013-09-26 08:49:00,
2013-09-26 04:54:00,42.7,40.0,30.03,ENE,73,0.0,0.0,90,0.00,,,0.00,WeatherDisplay:10.37,2013-09-26 08:54:00,
2013-09-26 04:59:00,42.7,40.0,30.02,ENE,73,0.0,0.0,90,0.00,,,0.00,WeatherDisplay:10.37,2013-09-26 08:59:00,
2013-09-26 05:04:00,42.7,40.0,30.03,ENE,73,0.0,0.0,90,0.00,,,0.00,WeatherDisplay:10.37,2013-09-26 09:04:00,
2013-09-26 05:09:00,42.6,39.9,30.03,ENE,73,0.0,0.0,90,0.00,,,0.00,WeatherDisplay:10.37,2013-09-26 09:09:00,
2013-09-26 05:14:00,42.5,39.8,30.03,ENE,73,0.0,0.0,90,0.00,,,0.00,WeatherDisplay:10.37,2013-09-26 09:14:00,
2013-09-26 05:19:00,42.6,39.9,30.03,ENE,73,0.0,0.0,90,0.00,,,0.00,WeatherDisplay:10.37,2013-09-26 09:19:00,
2013-09-26 05:24:00,42.7,40.0,30.03,ENE,73,0.0,0.0,90,0.00,,,0.00,WeatherDisplay:10.37,2013-09-26 09:24:00,
2013-09-26 05:29:00,42.8,40.4,30.03,ENE,74,0.0,0.0,91,0.00,,,0.00,WeatherDisplay:10.37,2013-09-26 09:29:00,
2013-09-26 05:34:00,42.9,40.5,30.03,ENE,73,0.0,0.0,91,0.00,,,0.00,WeatherDisplay:10.37,2013-09-26 09:34:00,
2013-09-26 05:39:00,42.9,40.5,30.03,ENE,73,0.0,0.0,91,0.00,,,0.00,WeatherDisplay:10.37,2013-09-26 09:39:00,
2013-09-26 05:44:00,42.8,40.4,30.03,ENE,73,0.0,0.0,91,0.00,,,0.00,WeatherDisplay:10.37,2013-09-26 09:44:00,
2013-09-26 05:49:00,42.7,40.3,30.04,ENE,73,0.0,0.0,91,0.00,,,0.00,WeatherDisplay:10.37,2013-09-26 09:49:00,
2013-09-26 05:54:00,42.5,40.1,30.04,ENE,73,0.0,0.0,91,0.00,,,0.00,WeatherDisplay:10.37,2013-09-26 09:54:00,
2013-09-26 05:59:00,42.5,39.8,30.04,ENE,73,0.0,0.0,90,0.00,,,0.00,WeatherDisplay:10.37,2013-09-26 09:59:00,
2013-09-26 06:04:00,42.5,40.1,30.04,ENE,73,0.0,0.0,91,0.00,,,0.00,WeatherDisplay:10.37,2013-09-26 10:04:00,
2013-09-26 06:09:00,42.6,40.2,30.04,ENE,73,0.0,0.0,91,0.00,,,0.00,WeatherDisplay:10.37,2013-09-26 10:09:00,
2013-09-26 06:14:00,42.5,40.1,30.04,ENE,73,0.0,0.0,91,0.00,,,0.00,WeatherDisplay:10.37,2013-09-26 10:14:00,
2013-09-26 06:19:00,42.5,40.1,30.04,ENE,73,0.0,0.0,91,0.00,,,0.00,WeatherDisplay:10.37,2013-09-26 10:19:00,
2013-09-26 06:24:00,42.5,40.1,30.04,ENE,73,0.0,0.0,91,0.00,,,0.00,WeatherDisplay:10.37,2013-09-26 10:24:00,
2013-09-26 06:29:00,42.3,39.9,30.04,ENE,73,0.0,0.0,91,0.00,CLR,,0.00,WeatherDisplay:10.37,2013-09-26 10:29:00,
2013-09-26 06:34:00,42.2,39.8,30.05,ENE,73,0.0,0.0,91,0.00,CLR,,0.00,WeatherDisplay:10.37,2013-09-26 10:34:00,
2013-09-26 06:39:00,42.3,39.9,30.05,ENE,73,0.0,0.0,91,0.00,CLR,,0.00,WeatherDisplay:10.37,2013-09-26 10:39:00,
2013-09-26 06:44:00,42.3,39.9,30.05,ENE,73,0.0,0.0,91,0.00,CLR,,0.00,WeatherDisplay:10.37,2013-09-26 10:44:00,
2013-09-26 06:49:00,42.2,39.8,30.05,ENE,73,0.0,0.0,91,0.00,CLR,,0.00,WeatherDisplay:10.37,2013-09-26 10:49:00,
2013-09-26 06:54:00,42.2,39.8,30.05,ENE,73,0.0,0.0,91,0.00,CLR,,0.00,WeatherDisplay:10.37,2013-09-26 10:54:00,
2013-09-26 06:59:00,42.2,39.8,30.05,ENE,73,0.0,0.0,91,0.00,CLR,,0.00,WeatherDisplay:10.37,2013-09-26 10:59:00,
2013-09-26 07:04:00,42.2,39.8,30.06,ENE,73,0.0,0.0,91,0.00,CLR,,0.00,WeatherDisplay:10.37,2013-09-26 11:04:00,
2013-09-26 07:09:00,42.3,39.9,30.06,ENE,74,0.0,0.0,91,0.00,CLR,,0.00,WeatherDisplay:10.37,2013-09-26 11:09:00,
2013-09-26 07:14:00,42.4,40.0,30.06,ENE,73,0.0,0.0,91,0.00,CLR,,0.00,WeatherDisplay:10.37,2013-09-26 11:14:00,
2013-09-26 07:19:00,42.6,40.2,30.06,ENE,73,0.0,0.0,91,0.00,CLR,,0.00,WeatherDisplay:10.37,2013-09-26 11:19:00,
2013-09-26 07:24:00,42.7,40.3,30.06,ENE,73,0.0,0.0,91,0.00,CLR,,0.00,WeatherDisplay:10.37,2013-09-26 11:24:00,
2013-09-26 07:29:00,42.8,40.4,30.07,ENE,73,0.0,0.0,91,0.00,CLR,,0.00,WeatherDisplay:10.37,2013-09-26 11:29:00,
2013-09-26 07:34:00,42.8,40.4,30.07,ENE,74,0.0,0.0,91,0.00,CLR,,0.00,WeatherDisplay:10.37,2013-09-26 11:34:00,
2013-09-26 07:39:00,43.0,40.6,30.07,ENE,73,0.0,0.0,91,0.00,CLR,,0.00,WeatherDisplay:10.37,2013-09-26 11:39:00,
2013-09-26 07:44:00,43.1,40.7,30.07,ENE,73,0.0,0.0,91,0.00,CLR,,0.00,WeatherDisplay:10.37,2013-09-26 11:44:00,
2013-09-26 07:49:00,43.5,41.0,30.07,ENE,74,0.0,0.0,91,0.00,CLR,,0.00,WeatherDisplay:10.37,2013-09-26 11:49:00,
2013-09-26 07:54:00,44.6,42.1,30.07,ENE,73,0.0,0.0,91,0.00,CLR,,0.00,WeatherDisplay:10.37,2013-09-26 11:54:00,
2013-09-26 07:59:00,44.8,42.3,30.07,ENE,73,0.0,0.0,91,0.00,CLR,,0.00,WeatherDisplay:10.37,2013-09-26 11:59:00,
2013-09-26 08:04:00,44.8,42.3,30.07,ENE,73,0.0,0.0,91,0.00,CLR,,0.00,WeatherDisplay:10.37,2013-09-26 12:04:00,
2013-09-26 08:09:00,44.9,42.4,30.07,ENE,73,0.0,0.0,91,0.00,CLR,,0.00,WeatherDisplay:10.37,2013-09-26 12:09:00,
2013-09-26 08:14:00,45.2,42.7,30.07,ENE,73,0.0,0.0,91,0.00,CLR,,0.00,WeatherDisplay:10.37,2013-09-26 12:14:00,
2013-09-26 08:19:00,45.4,42.9,30.07,ENE,73,0.0,0.0,91,0.00,CLR,,0.00,WeatherDisplay:10.37,2013-09-26 12:19:00,
2013-09-26 08:24:00,45.7,43.5,30.07,ENE,73,0.0,0.0,92,0.00,CLR,,0.00,WeatherDisplay:10.37,2013-09-26 12:24:00,
2013-09-26 08:29:00,46.1,43.9,30.07,ENE,73,0.0,0.0,92,0.00,CLR,,0.00,WeatherDisplay:10.37,2013-09-26 12:29:00,
2013-09-26 08:34:00,46.5,44.3,30.08,ENE,73,0.0,0.0,92,0.00,CLR,,0.00,WeatherDisplay:10.37,2013-09-26 12:34:00,
2013-09-26 08:39:00,47.1,44.9,30.08,ENE,73,0.0,0.0,92,0.00,CLR,,0.00,WeatherDisplay:10.37,2013-09-26 12:39:00,
2013-09-26 08:44:00,47.7,45.5,30.08,ENE,73,0.0,0.0,92,0.00,CLR,,0.00,WeatherDisplay:10.37,2013-09-26 12:44:00,
2013-09-26 08:49:00,48.1,45.9,30.08,ENE,73,0.0,0.0,92,0.00,CLR,,0.00,WeatherDisplay:10.37,2013-09-26 12:49:00,
2013-09-26 08:54:00,48.5,46.3,30.08,ENE,73,0.0,0.0,92,0.00,CLR,,0.00,WeatherDisplay:10.37,2013-09-26 12:54:00,
2013-09-26 08:59:00,48.9,46.7,30.08,ENE,73,0.0,0.0,92,0.00,CLR,,0.00,WeatherDisplay:10.37,2013-09-26 12:59:00,
2013-09-26 09:04:00,49.4,47.5,30.08,ENE,73,0.0,0.0,93,0.00,CLR,,0.00,WeatherDisplay:10.37,2013-09-26 13:04:00,
2013-09-26 09:09:00,50.1,48.2,30.08,West,264,1.1,1.1,93,0.00,CLR,,0.00,WeatherDisplay:10.37,2013-09-26 13:09:00,
2013-09-26 09:14:00,50.6,48.7,30.08,West,264,0.0,0.0,93,0.00,CLR,,0.00,WeatherDisplay:10.37,2013-09-26 13:14:00,
2013-09-26 09:19:00,51.1,49.1,30.09,West,264,0.0,0.0,93,0.00,CLR,,0.00,WeatherDisplay:10.37,2013-09-26 13:19:00,
2013-09-26 09:24:00,51.7,49.7,30.09,West,264,0.0,0.0,93,0.00,CLR,,0.00,WeatherDisplay:10.37,2013-09-26 13:24:00,
2013-09-26 09:29:00,52.6,50.6,30.09,West,264,0.0,0.0,93,0.00,CLR,,0.00,WeatherDisplay:10.37,2013-09-26 13:29:00,
2013-09-26 09:34:00,53.1,51.1,30.09,East,87,0.0,0.0,93,0.00,CLR,,0.00,WeatherDisplay:10.37,2013-09-26 13:34:00,
2013-09-26 09:39:00,53.8,51.8,30.09,NNE,28,0.0,0.0,93,0.00,CLR,,0.00,WeatherDisplay:10.37,2013-09-26 13:39:00,
2013-09-26 09:44:00,54.6,52.6,30.09,NNW,335,1.1,0.0,93,0.00,CLR,,0.00,WeatherDisplay:10.37,2013-09-26 13:44:00,
2013-09-26 09:49:00,55.3,53.3,30.09,WNW,295,1.0,1.0,93,0.00,CLR,,0.00,WeatherDisplay:10.37,2013-09-26 13:49:00,
2013-09-26 09:54:00,55.9,53.9,30.09,ENE,75,1.1,1.5,93,0.00,CLR,,0.00,WeatherDisplay:10.37,2013-09-26 13:54:00,
2013-09-26 09:59:00,56.6,54.6,30.09,East,90,0.0,0.0,93,0.00,CLR,,0.00,WeatherDisplay:10.37,2013-09-26 13:59:00,
2013-09-26 10:04:00,57.1,54.8,30.09,ENE,59,1.1,1.1,92,0.00,CLR,,0.00,WeatherDisplay:10.37,2013-09-26 14:04:00,
2013-09-26 10:09:00,58.0,55.1,30.10,SE,131,0.0,0.0,90,0.00,CLR,,0.00,WeatherDisplay:10.37,2013-09-26 14:09:00,
2013-09-26 10:14:00,59.1,57.1,30.09,ESE,113,0.0,0.0,93,0.00,CLR,,0.00,WeatherDisplay:10.37,2013-09-26 14:14:00,
2013-09-26 10:19:00,59.8,57.5,30.10,WSW,248,0.0,0.0,92,0.00,CLR,,0.00,WeatherDisplay:10.37,2013-09-26 14:19:00,
2013-09-26 10:24:00,60.4,57.5,30.10,SE,124,3.5,3.5,90,0.00,CLR,,0.00,WeatherDisplay:10.37,2013-09-26 14:24:00,
2013-09-26 10:29:00,61.0,57.7,30.09,NNE,18,2.0,2.0,89,0.00,CLR,,0.00,WeatherDisplay:10.37,2013-09-26 14:29:00,
2013-09-26 10:35:00,61.4,57.5,30.10,ESE,115,2.3,2.3,87,0.00,CLR,,0.00,WeatherDisplay:10.37,2013-09-26 14:35:00,
2013-09-26 10:40:00,61.8,56.9,30.10,NNW,345,3.5,3.5,84,0.00,CLR,,0.00,WeatherDisplay:10.37,2013-09-26 14:40:00,
2013-09-26 10:45:00,62.0,56.8,30.10,ESE,104,3.5,3.5,83,0.00,CLR,,0.00,WeatherDisplay:10.37,2013-09-26 14:45:00,
2013-09-26 10:50:00,62.4,56.5,30.10,WNW,283,2.3,2.3,81,0.00,CLR,,0.00,WeatherDisplay:10.37,2013-09-26 14:50:00,
2013-09-26 10:55:00,62.8,56.9,30.10,NNW,330,2.3,2.3,81,0.00,CLR,,0.00,WeatherDisplay:10.37,2013-09-26 14:55:00,
2013-09-26 11:00:00,63.2,57.3,30.10,SW,233,1.1,1.1,81,0.00,CLR,,0.00,WeatherDisplay:10.37,2013-09-26 15:00:00,
2013-09-26 11:05:00,63.7,58.1,30.10,NNW,336,0.0,0.0,82,0.00,CLR,,0.00,WeatherDisplay:10.37,2013-09-26 15:05:00,
2013-09-26 11:10:00,64.1,57.5,30.10,East,97,2.0,2.0,79,0.00,CLR,,0.00,WeatherDisplay:10.37,2013-09-26 15:10:00,
2013-09-26 11:15:00,64.2,56.5,30.10,North,354,1.1,1.1,76,0.00,CLR,,0.00,WeatherDisplay:10.37,2013-09-26 15:15:00,
2013-09-26 11:20:00,64.7,58.0,30.10,NNW,345,1.1,1.1,79,0.00,CLR,,0.00,WeatherDisplay:10.37,2013-09-26 15:20:00,
2013-09-26 11:25:00,65.2,58.2,30.10,SE,135,1.1,1.1,78,0.00,CLR,,0.00,WeatherDisplay:10.37,2013-09-26 15:25:00,
2013-09-26 11:30:00,65.4,56.9,30.10,ENE,57,2.3,2.3,74,0.00,CLR,,0.00,WeatherDisplay:10.37,2013-09-26 15:30:00,
2013-09-26 11:35:00,65.5,57.0,30.10,NNE,16,3.5,3.5,74,0.00,CLR,,0.00,WeatherDisplay:10.37,2013-09-26 15:35:00,
2013-09-26 11:40:00,65.8,56.9,30.10,ENE,78,3.5,3.5,73,0.00,CLR,,0.00,WeatherDisplay:10.37,2013-09-26 15:40:00,
2013-09-26 11:45:00,65.8,56.9,30.10,ESE,117,3.5,3.5,73,0.00,CLR,,0.00,WeatherDisplay:10.37,2013-09-26 15:45:00,
2013-09-26 11:50:00,66.1,56.8,30.10,ESE,108,5.0,5.0,72,0.00,CLR,,0.00,WeatherDisplay:10.37,2013-09-26 15:50:00,
2013-09-26 11:55:00,66.3,57.0,30.10,WSW,245,2.3,2.3,72,0.00,CLR,,0.00,WeatherDisplay:10.37,2013-09-26 15:55:00,
2013-09-26 12:00:00,66.6,56.1,30.10,North,352,1.1,1.1,69,0.00,CLR,,0.00,WeatherDisplay:10.37,2013-09-26 16:00:00,
2013-09-26 12:05:00,66.7,56.2,30.10,SW,219,3.5,3.5,69,0.00,CLR,,0.00,WeatherDisplay:10.37,2013-09-26 16:05:00,
2013-09-26 12:10:00,66.9,56.8,30.10,East,100,3.0,3.0,70,0.00,CLR,,0.00,WeatherDisplay:10.37,2013-09-26 16:10:00,
2013-09-26 12:15:00,66.8,55.1,30.09,ENE,58,3.5,3.5,66,0.00,CLR,,0.00,WeatherDisplay:10.37,2013-09-26 16:15:00,
2013-09-26 12:20:00,66.8,55.1,30.10,West,263,2.0,2.0,66,0.00,CLR,,0.00,WeatherDisplay:10.37,2013-09-26 16:20:00,
2013-09-26 12:25:00,67.1,55.4,30.10,SE,124,3.5,3.5,66,0.00,CLR,,0.00,WeatherDisplay:10.37,2013-09-26 16:25:00,
2013-09-26 12:30:00,67.2,55.5,30.09,ESE,120,3.5,3.5,66,0.00,CLR,,0.00,WeatherDisplay:10.37,2013-09-26 16:30:00,
2013-09-26 12:35:00,67.2,55.0,30.10,NW,313,3.5,3.5,65,0.00,CLR,,0.00,WeatherDisplay:10.37,2013-09-26 16:35:00,
2013-09-26 12:40:00,66.8,55.1,30.10,WSW,250,5.0,5.0,66,0.00,CLR,,0.00,WeatherDisplay:10.37,2013-09-26 16:40:00,
2013-09-26 12:45:00,67.2,57.1,30.10,SE,129,1.1,1.1,70,0.00,CLR,,0.00,WeatherDisplay:10.37,2013-09-26 16:45:00,
2013-09-26 12:50:00,67.7,55.9,30.10,North,356,2.3,2.3,66,0.00,CLR,,0.00,WeatherDisplay:10.37,2013-09-26 16:50:00,
2013-09-26 12:55:00,67.6,54.6,30.10,East,97,4.6,4.6,63,0.00,CLR,,0.00,WeatherDisplay:10.37,2013-09-26 16:55:00,
2013-09-26 13:00:00,67.4,54.8,30.10,ESE,115,3.5,3.5,64,0.00,CLR,,0.00,WeatherDisplay:10.37,2013-09-26 17:00:00,
2013-09-26 13:06:00,67.7,54.6,30.10,NE,54,2.3,2.3,63,0.00,CLR,,0.00,WeatherDisplay:10.37,2013-09-26 17:06:00,
2013-09-26 13:11:00,68.0,54.9,30.10,NNW,348,3.5,3.5,63,0.00,CLR,,0.00,WeatherDisplay:10.37,2013-09-26 17:11:00,
2013-09-26 13:16:00,68.2,55.1,30.10,NNE,25,5.0,5.0,63,0.00,CLR,,0.00,WeatherDisplay:10.37,2013-09-26 17:16:00,
2013-09-26 13:21:00,67.8,55.2,30.10,North,10,3.5,3.5,64,0.00,CLR,,0.00,WeatherDisplay:10.37,2013-09-26 17:21:00,
2013-09-26 13:26:00,67.9,54.8,30.09,NW,304,3.5,3.5,63,0.00,CLR,,0.00,WeatherDisplay:10.37,2013-09-26 17:26:00,
2013-09-26 13:31:00,67.7,54.6,30.09,SW,232,5.0,5.0,63,0.00,CLR,,0.00,WeatherDisplay:10.37,2013-09-26 17:31:00,
2013-09-26 13:36:00,67.7,54.6,30.09,WSW,258,3.5,3.5,63,0.00,CLR,,0.00,WeatherDisplay:10.37,2013-09-26 17:36:00,
2013-09-26 13:41:00,67.5,54.0,30.09,ENE,64,6.0,6.0,62,0.00,CLR,,0.00,WeatherDisplay:10.37,2013-09-26 17:41:00,
2013-09-26 13:46:00,67.5,55.3,30.09,ENE,78,3.5,3.5,65,0.00,CLR,,0.00,WeatherDisplay:10.37,2013-09-26 17:46:00,
2013-09-26 13:51:00,67.3,54.3,30.09,East,98,5.8,5.8,63,0.00,CLR,,0.00,WeatherDisplay:10.37,2013-09-26 17:51:00,
2013-09-26 13:56:00,67.4,54.4,30.09,NE,44,3.5,3.5,63,0.00,CLR,,0.00,WeatherDisplay:10.37,2013-09-26 17:56:00,
2013-09-26 14:01:00,67.0,54.0,30.09,WSW,252,4.6,4.6,63,0.00,CLR,,0.00,WeatherDisplay:10.37,2013-09-26 18:01:00,
2013-09-26 14:06:00,67.0,54.8,30.09,ESE,114,2.3,2.3,65,0.00,CLR,,0.00,WeatherDisplay:10.37,2013-09-26 18:06:00,
2013-09-26 14:11:00,67.1,54.5,30.09,North,359,4.6,4.6,64,0.00,CLR,,0.00,WeatherDisplay:10.37,2013-09-26 18:11:00,
2013-09-26 14:16:00,67.3,55.5,30.09,West,266,3.5,3.5,66,0.00,CLR,,0.00,WeatherDisplay:10.37,2013-09-26 18:16:00,
2013-09-26 14:21:00,67.3,55.1,30.09,ENE,64,1.1,1.1,65,0.00,CLR,,0.00,WeatherDisplay:10.37,2013-09-26 18:21:00,
2013-09-26 14:26:00,67.1,54.5,30.09,East,90,3.5,3.5,64,0.00,CLR,,0.00,WeatherDisplay:10.37,2013-09-26 18:26:00,
2013-09-26 14:31:00,66.8,54.7,30.08,NE,39,3.5,3.5,65,0.00,CLR,,0.00,WeatherDisplay:10.37,2013-09-26 18:31:00,
2013-09-26 14:36:00,66.8,55.1,30.08,SE,134,4.6,4.6,66,0.00,CLR,,0.00,WeatherDisplay:10.37,2013-09-26 18:36:00,
2013-09-26 14:41:00,67.0,55.7,30.08,ESE,114,3.5,3.5,67,0.00,CLR,,0.00,WeatherDisplay:10.37,2013-09-26 18:41:00,
2013-09-26 14:46:00,67.1,56.6,30.08,East,95,1.1,1.1,69,0.00,CLR,,0.00,WeatherDisplay:10.37,2013-09-26 18:46:00,
2013-09-26 14:51:00,66.9,55.6,30.09,ENE,69,3.5,3.5,67,0.00,CLR,,0.00,WeatherDisplay:10.37,2013-09-26 18:51:00,
2013-09-26 14:56:00,67.0,57.3,30.08,West,273,4.0,4.0,71,0.00,CLR,,0.00,WeatherDisplay:10.37,2013-09-26 18:56:00,
2013-09-26 15:02:00,66.6,56.1,30.09,ESE,115,5.8,5.8,69,0.00,CLR,,0.00,WeatherDisplay:10.37,2013-09-26 19:02:00,
2013-09-26 15:07:00,66.9,57.2,30.09,WNW,283,1.0,0.0,71,0.00,CLR,,0.00,WeatherDisplay:10.37,2013-09-26 19:07:00,
2013-09-26 15:12:00,66.9,56.8,30.09,ENE,63,3.5,3.5,70,0.00,CLR,,0.00,WeatherDisplay:10.37,2013-09-26 19:12:00,
2013-09-26 15:17:00,66.7,56.6,30.09,SE,131,3.5,3.5,70,0.00,CLR,,0.00,WeatherDisplay:10.37,2013-09-26 19:17:00,
2013-09-26 15:22:00,66.9,57.6,30.09,SSE,162,1.1,0.0,72,0.00,CLR,,0.00,WeatherDisplay:10.37,2013-09-26 19:22:00,
2013-09-26 15:27:00,66.9,56.8,30.09,ESE,105,3.5,3.5,70,0.00,CLR,,0.00,WeatherDisplay:10.37,2013-09-26 19:27:00,
2013-09-26 15:32:00,66.5,56.8,30.09,West,281,3.5,3.5,71,0.00,CLR,,0.00,WeatherDisplay:10.37,2013-09-26 19:32:00,
2013-09-26 15:37:00,66.3,56.2,30.09,NNW,342,5.8,5.8,70,0.00,CLR,,0.00,WeatherDisplay:10.37,2013-09-26 19:37:00,
2013-09-26 15:42:00,66.1,56.4,30.09,ESE,112,5.8,5.8,71,0.00,CLR,,0.00,WeatherDisplay:10.37,2013-09-26 19:42:00,
2013-09-26 15:47:00,66.0,56.3,30.09,SE,125,3.5,3.5,71,0.00,CLR,,0.00,WeatherDisplay:10.37,2013-09-26 19:47:00,
2013-09-26 15:52:00,66.0,55.9,30.09,WNW,287,6.9,6.9,70,0.00,CLR,,0.00,WeatherDisplay:10.37,2013-09-26 19:52:00,
2013-09-26 15:57:00,65.9,55.0,30.09,East,93,3.5,3.5,68,0.00,CLR,,0.00,WeatherDisplay:10.37,2013-09-26 19:57:00,
2013-09-26 16:02:00,65.8,54.5,30.09,ENE,60,4.6,4.6,67,0.00,CLR,,0.00,WeatherDisplay:10.37,2013-09-26 20:02:00,
2013-09-26 16:08:00,65.5,55.1,30.09,NNW,330,3.5,3.5,69,0.00,CLR,,0.00,WeatherDisplay:10.37,2013-09-26 20:08:00,
2013-09-26 16:13:00,65.1,54.7,30.09,WNW,297,3.5,3.5,69,0.00,CLR,,0.00,WeatherDisplay:10.37,2013-09-26 20:13:00,
2013-09-26 16:18:00,65.0,54.2,30.10,SSE,151,3.5,3.5,68,0.00,CLR,,0.00,WeatherDisplay:10.37,2013-09-26 20:18:00,
2013-09-26 16:24:00,65.0,54.6,30.10,North,8,4.6,4.6,69,0.00,CLR,,0.00,WeatherDisplay:10.37,2013-09-26 20:24:00,
2013-09-26 16:29:00,65.0,54.6,30.10,East,81,4.0,4.0,69,0.00,CLR,,0.00,WeatherDisplay:10.37,2013-09-26 20:29:00,
2013-09-26 16:34:00,64.8,53.2,30.10,ENE,70,5.0,5.0,66,0.00,CLR,,0.00,WeatherDisplay:10.37,2013-09-26 20:34:00,
2013-09-26 16:39:00,64.7,53.1,30.10,SW,217,3.5,3.5,66,0.00,CLR,,0.00,WeatherDisplay:10.37,2013-09-26 20:39:00,
2013-09-26 16:44:00,64.4,52.4,30.10,NE,51,3.5,3.5,65,0.00,CLR,,0.00,WeatherDisplay:10.37,2013-09-26 20:44:00,
2013-09-26 16:49:00,64.0,52.4,30.10,South,191,2.3,2.3,66,0.00,CLR,,0.00,WeatherDisplay:10.37,2013-09-26 20:49:00,
2013-09-26 16:54:00,63.8,52.6,30.10,East,96,3.5,3.5,67,0.00,CLR,,0.00,WeatherDisplay:10.37,2013-09-26 20:54:00,
2013-09-26 16:59:00,63.5,53.1,30.10,SW,226,4.6,4.6,69,0.00,CLR,,0.00,WeatherDisplay:10.37,2013-09-26 20:59:00,
2013-09-26 17:04:00,63.4,53.4,30.10,WSW,256,3.5,3.5,70,0.00,CLR,,0.00,WeatherDisplay:10.37,2013-09-26 21:04:00,
2013-09-26 17:09:00,63.0,53.8,30.10,SE,126,2.3,0.0,72,0.00,CLR,,0.00,WeatherDisplay:10.37,2013-09-26 21:09:00,
2013-09-26 17:14:00,62.8,53.6,30.10,WSW,248,1.1,1.1,72,0.00,CLR,,0.00,WeatherDisplay:10.37,2013-09-26 21:14:00,
2013-09-26 17:19:00,62.7,53.9,30.10,ENE,78,3.0,3.0,73,0.00,CLR,,0.00,WeatherDisplay:10.37,2013-09-26 21:19:00,
2013-09-26 17:24:00,62.5,53.7,30.10,NNW,333,4.6,4.6,73,0.00,CLR,,0.00,WeatherDisplay:10.37,2013-09-26 21:24:00,
2013-09-26 17:29:00,62.3,53.9,30.11,SW,225,5.8,5.8,74,0.00,CLR,,0.00,WeatherDisplay:10.37,2013-09-26 21:29:00,
2013-09-26 17:34:00,62.1,54.8,30.11,East,100,2.3,0.0,77,0.00,CLR,,0.00,WeatherDisplay:10.37,2013-09-26 21:34:00,
2013-09-26 17:39:00,61.9,53.9,30.11,SW,223,6.9,0.0,75,0.00,CLR,,0.00,WeatherDisplay:10.37,2013-09-26 21:39:00,
2013-09-26 17:44:00,61.9,54.2,30.11,SE,124,1.1,0.0,76,0.00,CLR,,0.00,WeatherDisplay:10.37,2013-09-26 21:44:00,
2013-09-26 17:49:00,61.6,54.0,30.11,WSW,256,1.1,1.1,76,0.00,CLR,,0.00,WeatherDisplay:10.37,2013-09-26 21:49:00,
2013-09-26 17:54:00,61.4,54.1,30.11,NNE,23,2.3,2.3,77,0.00,CLR,,0.00,WeatherDisplay:10.37,2013-09-26 21:54:00,
2013-09-26 17:59:00,61.3,54.4,30.11,ENE,77,2.3,0.0,78,0.00,CLR,,0.00,WeatherDisplay:10.37,2013-09-26 21:59:00,
2013-09-26 18:04:00,61.0,54.1,30.11,NNW,331,0.0,0.0,78,0.00,CLR,,0.00,WeatherDisplay:10.37,2013-09-26 22:04:00,
2013-09-26 18:09:00,60.8,54.6,30.11,ENE,64,0.0,0.0,80,0.00,CLR,,0.00,WeatherDisplay:10.37,2013-09-26 22:09:00,
2013-09-26 18:14:00,60.5,54.3,30.11,SW,217,2.3,0.0,80,0.00,CLR,,0.00,WeatherDisplay:10.37,2013-09-26 22:14:00,
2013-09-26 18:19:00,60.3,54.4,30.11,WSW,257,0.0,0.0,81,0.00,CLR,,0.00,WeatherDisplay:10.37,2013-09-26 22:19:00,
2013-09-26 18:24:00,60.0,54.2,30.11,WSW,256,0.0,0.0,81,0.00,CLR,,0.00,WeatherDisplay:10.37,2013-09-26 22:24:00,
2013-09-26 18:29:00,59.6,54.4,30.12,WSW,256,0.0,0.0,83,0.00,CLR,,0.00,WeatherDisplay:10.37,2013-09-26 22:29:00,
2013-09-26 18:34:00,59.1,54.3,30.12,WSW,256,0.0,0.0,84,0.00,CLR,,0.00,WeatherDisplay:10.37,2013-09-26 22:34:00,
2013-09-26 18:39:00,58.6,54.1,30.12,WSW,256,0.0,0.0,85,0.00,CLR,,0.00,WeatherDisplay:10.37,2013-09-26 22:39:00,
2013-09-26 18:44:00,58.0,53.8,30.12,WSW,256,0.0,0.0,86,0.00,CLR,,0.00,WeatherDisplay:10.37,2013-09-26 22:44:00,
2013-09-26 18:49:00,57.5,53.7,30.12,WSW,256,0.0,0.0,87,0.00,CLR,,0.00,WeatherDisplay:10.37,2013-09-26 22:49:00,
2013-09-26 18:54:00,57.0,53.5,30.12,WSW,256,0.0,0.0,88,0.00,CLR,,0.00,WeatherDisplay:10.37,2013-09-26 22:54:00,
2013-09-26 18:59:00,56.5,53.3,30.12,WSW,256,0.0,0.0,89,0.00,CLR,,0.00,WeatherDisplay:10.37,2013-09-26 22:59:00,
2013-09-26 19:04:00,56.0,52.8,30.12,WSW,256,0.0,0.0,89,0.00,,,0.00,WeatherDisplay:10.37,2013-09-26 23:04:00,
2013-09-26 19:09:00,55.6,52.7,30.12,WSW,257,0.0,0.0,90,0.00,,,0.00,WeatherDisplay:10.37,2013-09-26 23:09:00,
2013-09-26 19:14:00,55.3,52.4,30.12,WSW,256,0.0,0.0,90,0.00,,,0.00,WeatherDisplay:10.37,2013-09-26 23:14:00,
2013-09-26 19:20:00,55.0,52.4,30.12,WSW,256,0.0,0.0,91,0.00,,,0.00,WeatherDisplay:10.37,2013-09-26 23:20:00,
2013-09-26 19:25:00,54.9,52.3,30.12,WSW,257,0.0,0.0,91,0.00,,,0.00,WeatherDisplay:10.37,2013-09-26 23:25:00,
2013-09-26 19:30:00,54.7,52.1,30.12,WSW,256,0.0,0.0,91,0.00,,,0.00,WeatherDisplay:10.37,2013-09-26 23:30:00,
2013-09-26 19:35:00,54.4,52.1,30.13,WSW,256,0.0,0.0,92,0.00,,,0.00,WeatherDisplay:10.37,2013-09-26 23:35:00,
2013-09-26 19:40:00,54.4,52.1,30.13,WNW,288,0.0,0.0,92,0.00,,,0.00,WeatherDisplay:10.37,2013-09-26 23:40:00,
2013-09-26 19:45:00,54.4,52.1,30.13,WNW,284,0.0,0.0,92,0.00,,,0.00,WeatherDisplay:10.37,2013-09-26 23:45:00,
2013-09-26 19:50:00,54.4,52.1,30.13,WNW,284,0.0,0.0,92,0.00,,,0.00,WeatherDisplay:10.37,2013-09-26 23:50:00,
2013-09-26 19:55:00,54.4,52.1,30.13,WNW,284,0.0,0.0,92,0.00,,,0.00,WeatherDisplay:10.37,2013-09-26 23:55:00,
2013-09-26 20:01:00,54.3,52.0,30.13,WNW,283,0.0,0.0,92,0.00,,,0.00,WeatherDisplay:10.37,2013-09-27 00:01:00,
2013-09-26 20:06:00,54.3,52.0,30.13,WNW,283,0.0,0.0,92,0.00,,,0.00,WeatherDisplay:10.37,2013-09-27 00:06:00,
2013-09-26 20:11:00,54.5,52.2,30.13,WNW,283,0.0,0.0,92,0.00,,,0.00,WeatherDisplay:10.37,2013-09-27 00:11:00,
2013-09-26 20:16:00,54.6,52.3,30.13,WNW,283,0.0,0.1,92,0.00,,,0.00,WeatherDisplay:10.37,2013-09-27 00:16:00,
2013-09-26 20:21:00,54.7,52.4,30.13,WNW,284,0.0,0.0,92,0.00,,,0.00,WeatherDisplay:10.37,2013-09-27 00:21:00,
2013-09-26 20:26:00,54.7,52.4,30.14,WNW,284,0.0,0.0,92,0.00,,,0.00,WeatherDisplay:10.37,2013-09-27 00:26:00,
2013-09-26 20:31:00,54.6,52.3,30.14,WNW,284,0.0,0.0,92,0.00,,,0.00,WeatherDisplay:10.37,2013-09-27 00:31:00,
2013-09-26 20:36:00,54.5,52.2,30.14,WNW,283,0.0,0.0,92,0.00,,,0.00,WeatherDisplay:10.37,2013-09-27 00:36:00,
2013-09-26 20:41:00,54.4,52.1,30.14,WNW,283,0.0,0.0,92,0.00,,,0.00,WeatherDisplay:10.37,2013-09-27 00:41:00,
2013-09-26 20:46:00,54.2,51.9,30.14,WSW,255,0.0,0.0,92,0.00,,,0.00,WeatherDisplay:10.37,2013-09-27 00:46:00,
2013-09-26 20:51:00,54.3,52.0,30.14,WNW,293,0.0,0.0,92,0.00,,,0.00,WeatherDisplay:10.37,2013-09-27 00:51:00,
2013-09-26 20:56:00,54.3,52.0,30.14,WNW,292,0.0,0.0,92,0.00,,,0.00,WeatherDisplay:10.37,2013-09-27 00:56:00,
2013-09-26 21:01:00,54.4,52.1,30.14,WNW,292,0.0,0.0,92,0.00,,,0.00,WeatherDisplay:10.37,2013-09-27 01:01:00,
2013-09-26 21:06:00,54.3,52.0,30.14,WNW,293,0.0,0.0,92,0.00,,,0.00,WeatherDisplay:10.37,2013-09-27 01:06:00,
2013-09-26 21:11:00,54.2,51.9,30.14,WNW,293,0.0,0.0,92,0.00,,,0.00,WeatherDisplay:10.37,2013-09-27 01:11:00,
2013-09-26 21:16:00,53.9,51.6,30.14,WNW,292,0.0,0.0,92,0.00,,,0.00,WeatherDisplay:10.37,2013-09-27 01:16:00,
2013-09-26 21:21:00,53.6,51.3,30.14,WNW,292,0.0,0.0,92,0.00,,,0.00,WeatherDisplay:10.37,2013-09-27 01:21:00,
2013-09-26 21:26:00,53.2,50.9,30.15,WNW,293,0.0,0.0,92,0.00,,,0.00,WeatherDisplay:10.37,2013-09-27 01:26:00,
2013-09-26 21:31:00,52.8,50.5,30.15,WNW,292,0.0,0.0,92,0.00,,,0.00,WeatherDisplay:10.37,2013-09-27 01:31:00,
2013-09-26 21:36:00,52.5,50.2,30.15,WNW,293,0.0,0.0,92,0.00,,,0.00,WeatherDisplay:10.37,2013-09-27 01:36:00,
2013-09-26 21:41:00,52.3,50.0,30.15,WNW,293,0.0,0.0,92,0.00,,,0.00,WeatherDisplay:10.37,2013-09-27 01:41:00,
2013-09-26 21:46:00,52.1,49.8,30.15,WNW,292,0.0,0.0,92,0.00,,,0.00,WeatherDisplay:10.37,2013-09-27 01:46:00,
2013-09-26 21:51:00,52.0,49.7,30.15,WNW,292,0.0,0.0,92,0.00,,,0.00,WeatherDisplay:10.37,2013-09-27 01:51:00,
2013-09-26 21:56:00,52.1,49.8,30.15,WNW,293,0.0,0.0,92,0.00,,,0.00,WeatherDisplay:10.37,2013-09-27 01:56:00,
2013-09-26 22:01:00,52.2,49.9,30.15,WNW,292,0.0,0.0,92,0.00,,,0.00,WeatherDisplay:10.37,2013-09-27 02:01:00,
2013-09-26 22:06:00,52.1,49.8,30.15,WNW,293,0.0,0.0,92,0.00,,,0.00,WeatherDisplay:10.37,2013-09-27 02:06:00,
2013-09-26 22:11:00,52.0,49.7,30.15,WNW,292,0.0,0.0,92,0.00,,,0.00,WeatherDisplay:10.37,2013-09-27 02:11:00,
2013-09-26 22:16:00,51.8,49.5,30.15,WNW,293,0.0,0.0,92,0.00,,,0.00,WeatherDisplay:10.37,2013-09-27 02:16:00,
2013-09-26 22:21:00,51.8,49.5,30.15,WNW,293,0.0,0.0,92,0.00,,,0.00,WeatherDisplay:10.37,2013-09-27 02:21:00,
2013-09-26 22:26:00,51.8,49.3,30.15,WNW,292,0.0,0.0,91,0.00,,,0.00,WeatherDisplay:10.37,2013-09-27 02:26:00,
2013-09-26 22:31:00,51.7,49.5,30.15,WNW,293,0.0,0.0,92,0.00,,,0.00,WeatherDisplay:10.37,2013-09-27 02:31:00,
2013-09-26 22:36:00,51.4,49.2,30.15,WNW,293,0.0,0.0,92,0.00,,,0.00,WeatherDisplay:10.37,2013-09-27 02:36:00,
2013-09-26 22:41:00,51.2,49.0,30.15,WNW,293,0.0,0.0,92,0.00,,,0.00,WeatherDisplay:10.37,2013-09-27 02:41:00,
2013-09-26 22:46:00,51.1,48.6,30.15,WNW,292,0.0,0.0,91,0.00,,,0.00,WeatherDisplay:10.37,2013-09-27 02:46:00,
2013-09-26 22:51:00,51.0,48.5,30.15,WNW,293,0.0,0.0,91,0.00,,,0.00,WeatherDisplay:10.37,2013-09-27 02:51:00,
2013-09-26 22:56:00,51.2,48.7,30.15,WNW,293,0.0,0.0,91,0.00,,,0.00,WeatherDisplay:10.37,2013-09-27 02:56:00,
2013-09-26 23:01:00,51.3,48.5,30.16,WNW,292,0.0,0.0,90,0.00,,,0.00,WeatherDisplay:10.37,2013-09-27 03:01:00,
2013-09-26 23:06:00,51.4,48.6,30.16,WNW,292,0.0,0.0,90,0.00,,,0.00,WeatherDisplay:10.37,2013-09-27 03:06:00,
2013-09-26 23:11:00,51.6,48.8,30.16,WNW,292,0.0,0.0,90,0.00,,,0.00,WeatherDisplay:10.37,2013-09-27 03:11:00,
2013-09-26 23:16:00,51.8,49.0,30.16,WNW,293,0.0,0.0,90,0.00,,,0.00,WeatherDisplay:10.37,2013-09-27 03:16:00,
2013-09-26 23:21:00,51.7,48.9,30.16,WNW,293,0.0,0.0,90,0.00,,,0.00,WeatherDisplay:10.37,2013-09-27 03:21:00,
2013-09-26 23:26:00,51.5,48.7,30.16,WNW,293,0.0,0.0,90,0.00,,,0.00,WeatherDisplay:10.37,2013-09-27 03:26:00,
2013-09-26 23:31:00,51.6,48.8,30.16,WNW,292,0.0,0.0,90,0.00,,,0.00,WeatherDisplay:10.37,2013-09-27 03:31:00,
2013-09-26 23:36:00,51.6,48.8,30.16,WNW,292,0.0,0.0,90,0.00,,,0.00,WeatherDisplay:10.37,2013-09-27 03:36:00,
2013-09-26 23:41:00,51.3,48.8,30.16,WNW,293,0.0,0.0,91,0.00,,,0.00,WeatherDisplay:10.37,2013-09-27 03:41:00,
2013-09-26 23:46:00,50.9,48.4,30.16,WNW,292,0.0,0.0,91,0.00,,,0.00,WeatherDisplay:10.37,2013-09-27 03:46:00,
2013-09-26 23:51:00,50.6,48.1,30.16,WNW,292,0.0,0.0,91,0.00,,,0.00,WeatherDisplay:10.37,2013-09-27 03:51:00,
2013-09-26 23:56:00,50.2,47.7,30.16,WNW,293,0.0,0.0,91,0.00,,,0.00,WeatherDisplay:10.37,2013-09-27 03:56:00,